Location: Oakhurst
(33.6448°N, 111.9543°W)
Time: 02:15:46
(UTC+00:00)

X-37B - Pass Details

Date: 17 May 2021
Orbit: 386 x 389 km, 45.0° (Epoch: 23 June)

Event Time Altitude Azimuth Distance (km) Brightness Sun altitude
Rises 03:37:42 0° 297° (WNW) 2,270 6.3 -14.4°
Reaches altitude 10° 03:39:50 10° 291° (WNW) 1,413 4.7 -14.7°
Maximum altitude 03:42:52 42° 218° (SW) 561 1.3 -15.2°
Enters shadow 03:43:57 30° 169° (S) 724 1.5 -15.4°
